Flag for Switzerland Weather past 2 weeks in Monthey, Valais, Switzerland

Now
59 °F

Refreshingly cool.


Feels Like: 57 °F
Forecast: 43 / 64 °F
Wind: 10 mph from North

Location: Aigle

Current Time: Sep 5, 2015 at 1:21:35 PM

Latest Report: Sep 5, 2015 at 12:00 PM


Visibility: N/A

Pressure: 30.07 "Hg

Humidity: 56%

Dew point: 44 °F

Location of MontheyLocation

Historic Weather in Monthey — Graph

°F

Monthey temperature yesterday

Maximum temperature yesterday: 70 °F (at 4:00 PM)
Minimum temperature yesterday: 51 °F (at 7:00 AM)
Average temperature yesterday: 61 °F

Past Weeks' High & Low Weather Summary

 TemperatureHumidityPressure
High83 °F (Aug 28, 5:00 PM)98% (Aug 25, 3:00 AM)30.19 "Hg (Aug 25, 3:00 AM)
Low51 °F (Sep 4, 7:00 AM)37% (Aug 31, 11:00 AM)29.70 "Hg (Aug 24, 5:00 AM)
Average66 °F74%29.99 "Hg
* Reported Aug 21 12:00 Noon — Sep 5 12:00 Noon, Monthey, Weather by CustomWeather, © 2015

Note: Actual official high and low records may vary slightly from our data, if they occured in-between our weather recording intervals... More about our weather records

Advertising

Monthey weather history for previous 24 hours

 ConditionsComfort  
Time TempWeatherWind HumidityBarometerVisibility
12:00 PM
Sat, Sep 5
59 °FRefreshingly cool.10 mph56%30.07 "HgN/A
11:00 AM57 °FOvercast.12 mph65%30.06 "Hg12 mi
10:00 AM59 °FCool.10 mph61%30.03 "HgN/A
9:00 AM60 °FCool.8 mph63%30.02 "HgN/A
8:00 AM58 °FOvercast.5 mph60%30.01 "Hg12 mi
7:00 AM59 °FCool.9 mph63%30.00 "HgN/A
6:00 AM60 °FCool.6 mph63%29.98 "HgN/A
4:00 AM60 °FCool.9 mph61%29.99 "HgN/A
3:00 AM61 °FRefreshingly cool.9 mph58%29.98 "HgN/A
2:00 AM61 °FRefreshingly cool.9 mph59%29.99 "HgN/A
1:00 AM61 °FRefreshingly cool.9 mph57%29.98 "HgN/A
12:00 AM62 °FRefreshingly cool.8 mph52%29.98 "HgN/A
10:00 PM
Fri, Sep 4
64 °FMild.10 mph48%29.96 "HgN/A
9:00 PM64 °FMild.9 mph50%29.94 "HgN/A
7:00 PM66 °FMild.7 mph50%29.91 "HgN/A
6:00 PM66 °FMild.7 mph52%29.91 "HgN/A
5:00 PM69 °FPassing clouds.9 mph42%29.90 "Hg28 mi
4:00 PM70 °FMild.13 mph45%29.90 "HgN/A
3:00 PM69 °FMild.12 mph44%29.93 "HgN/A
2:00 PM68 °FPassing clouds.13 mph51%29.95 "Hg25 mi
1:00 PM67 °FMild.12 mph58%29.97 "HgN/A
Weather by CustomWeather, © 2015

See weather overviewHow to use our weather pages